Regional Weather Roundup
Issued by NWS

Home | Current Version | Previous Version | Text Only | Print | Product List | Glossary Off
Versions: 1 2 3 4 5 6 7 8 9 10 11 12 13 14 15 16 17 18 19 20 21 22 23 24 25 26 27 28 29 30 31 32 33 34 35 36 37 38 39 40 41 42 43 44 45 46 47 48 49 50

000
ASUS43 KLOT 221810
RWRIL

ILLINOIS REGIONAL WEATHER ROUNDUP
NATIONAL WEATHER SERVICE CHICAGO/ROMEOVILLE IL
1200 PM CST MON DEC 22 2014

NOTE: "FAIR" INDICATES FEW OR NO CLOUDS BELOW 12,000 FEET WITH NO
SIGNIFICANT WEATHER AND/OR OBSTRUCTIONS TO VISIBILITY.

* THESE STATIONS ARE NOT UNDER NWS QUALITY CONTROL. THEY ALSO MAY NOT
  REPORT WEATHER SUCH AS PRECIPITATION OR FOG.

ILZ001-002-007-009-015-016-024-221900-
NORTHWEST ILLINOIS

CITY           SKY/WX    TMP DP  RH WIND       PRES   REMARKS
MOLINE         LGT RAIN  37  34  89 E15G24    29.65F FOG     WCI  28
6HR MIN TEMP:  36; 6HR MAX TEMP:  37; 6HR PCP:  0.05;

STERLING*      CLOUDY    36  30  80 E16       29.72F WCI  26
SAVANNA*       LGT RAIN  37  33  85 E12       29.70F WCI  30
$$

ILZ003-004-008-010-011-017-018-221900-
NORTH CENTRAL ILLINOIS

CITY           SKY/WX    TMP DP  RH WIND       PRES   REMARKS
ROCKFORD       LGTSLEET  35  31  85 E9        29.78F FOG     WCI  28
6HR MIN TEMP:  33; 6HR MAX TEMP:  35; 6HR PCP:  0.01;

FREEPORT*      LGT RAIN  34  32  93 E14       29.76F WCI  24
ROCHELLE*      DRIZZLE   33  32  95 E14       29.76F WCI  24
DE KALB*       LGT RAIN  33  31  94 E12       29.77F WCI  24
PERU*          LGT RAIN  36  34  93 E14       29.73F WCI  27
$$

ILZ005-006-012>014-019>023-221900-
NORTHEAST ILLINOIS

CITY           SKY/WX    TMP DP  RH WIND       PRES   REMARKS
CHICAGO-OHARE  LGT RAIN  35  31  85 E9        29.80F FOG     WCI  28
6HR MIN TEMP:  31; 6HR MAX TEMP:  36; 6HR PCP:  0.01;

CHICAGO-MIDWAY LGT RAIN  36  32  85 E9        29.81F WCI  29
6HR MIN TEMP:  33; 6HR MAX TEMP:  37; 6HR PCP:  0.01;

AURORA         LGT RAIN  36  31  82 E13       29.77F WCI  27
6HR MIN TEMP:  33; 6HR MAX TEMP:  36; 6HR PCP:  0.02;

LANSING*       LGT RAIN  36  33  88 SE8       29.82F WCI  29
JOLIET*        RAIN      35  33  93 E12       29.79F WCI  26
WAUKEGAN       LGT SNOW  34  31  88 SE8       29.82F FOG     WCI  27
6HR MIN TEMP:  32; 6HR MAX TEMP:  36; 6HR PCP: TRACE;

DUPAGE AIRPORT LGT RAIN  35  30  82 E9        29.79F WCI  28
6HR MIN TEMP:  32; 6HR MAX TEMP:  35; 6HR PCP: TRACE;

KANKAKEE*      LGT RAIN  36  34  93 E10       29.79F WCI  28
WHEELING       LGT RAIN  35  31  85 SE6       29.83F FOG     WCI  30
6HR MIN TEMP:  32; 6HR MAX TEMP:  36; 6HR PCP: TRACE;

MORRIS*        RAIN      35  34  98 E13       29.76F WCI  26
ROMEOVILLE*    LGT RAIN  35  34  96 E9        29.79F WCI  28
NORTHERLY ISL    N/A     35  32  88 SE10        N/A  WCI  27
$$

LMZ740>746-221900-
SOUTHERN LAKE MICHIGAN

STATION/POSITION SKY/WX   TEMP    WIND        PRES    VSBY  WAVE
                          AIR SEA DIR/SP/G                  HT/PER
                          (F)     (DEG/KT/KT) (MB)    (MI)  (FT/S)
WAUKEGAN HARBOR            36     150/ 13/ 17   N/A
HARRISON CRIB              34     140/ 16/ 18   N/A
BURNHAM HARBOR             34     110/  9/ 13   N/A
CALUMET HARBOR             35     100/  7/ 11 1008.7F
$$

ILZ025>027-034>036-040-047-049-050-058-095>099-221900-
WEST-CENTRAL ILLINOIS

CITY           SKY/WX    TMP DP  RH WIND       PRES   REMARKS
QUINCY         CLOUDY    40  39  97 SE9       29.61F FOG
GALESBURG*     LGT RAIN  37  36  98 E9G16     29.65F WCI  30
MACOMB*        LGT RAIN  38  37  99 SE12      29.67F WCI  30
JACKSONVILLE*  DRIZZLE   43  41  93 SE12G17   29.65F
PITTSFIELD*    CLOUDY    42  41  94 SE10      29.63F FOG
$$

ILZ028>032-037-038-041>044-048-051>054-059>061-221900-
CENTRAL ILLINOIS

CITY           SKY/WX    TMP DP  RH WIND       PRES   REMARKS
PONTIAC        LGT RAIN  37  36  96 E15       29.75F WCI  27
BLOOMINGTON    LGT RAIN  37  37 100 SE15      29.71F FOG     WCI  28
DECATUR        RAIN      41  50 100 SE15      29.72F
PEORIA         RAIN      39  35  86 E14       29.67F FOG     WCI  31
6HR MIN TEMP:  37; 6HR MAX TEMP:  39; 6HR PCP:  0.24;

LACON*         LGT RAIN  36  35  94 SE10G17   29.71F WCI  29
LINCOLN*       LGT RAIN  40  39  96 SE13      29.69F
SPRINGFIELD    LGT RAIN  43  42  97 SE15      29.68F FOG
6HR MIN TEMP:  36; 6HR MAX TEMP:  43; 6HR PCP:  0.35;

TAYLORVILLE    LGT RAIN  41  39  93 SE15G21   29.68F
$$

ILZ033-039-045-046-055>057-062-063-221900-
EAST-CENTRAL ILLINOIS

CITY           SKY/WX    TMP DP  RH WIND       PRES   REMARKS
CHAMPAIGN      LGT RAIN  38  36  92 SE15      29.75F FOG     WCI  29
DANVILLE*      DRIZZLE   37  36  96 SE8       29.76F WCI  30
RANTOUL*       LGT RAIN  39  38  96 SE13      29.75F WCI  32
MATTOON        LGT RAIN  41  39  93 SE10      29.74F FOG
PARIS*         DRIZZLE   40  39  97 SE8       29.78F
$$

ILZ079-100>102-221900-
SOUTHWEST ILLINOIS

CITY           SKY/WX    TMP DP  RH WIND       PRES   REMARKS
ALTON          LGT RAIN  45  43  93 SE10      29.68
CAHOKIA*       LGT RAIN  47  45  93 S6        29.66F FOG
SPARTA*        RAIN      46  46 100 SE10G16   29.68F
$$

ILZ064>066-069>071-074>076-080>082-084>086-088>090-092>094-221900-
SOUTH-CENTRAL ILLINOIS

CITY           SKY/WX    TMP DP  RH WIND       PRES   REMARKS
CARBONDALE     LGT RAIN  49  46  90 S12       29.70F FOG
6HR MIN TEMP:  41; 6HR MAX TEMP:  49; 6HR PCP:  0.02;

CAIRO*         LGT RAIN  51  51 100 SE12      29.71F
EFFINGHAM*     RAIN      44  41  90 SE10      29.76F
MARION         LGT RAIN  50  48  93 SE9G18    29.71F
MT. VERNON     CLOUDY    45  41  87 SE8       29.73F
CENTRALIA*     LGT RAIN  44  41  91 SE14      29.69F
SALEM*         LGT RAIN  46  43  92 SE12      29.71F
METROPOLIS*    RAIN      49  49 100 E5        29.72F
$$

ILZ067-068-072-073-078-083-087-091-221900-
SOUTHEAST ILLINOIS

CITY           SKY/WX    TMP DP  RH WIND       PRES   REMARKS
LAWRENCEVILLE  CLOUDY    48  43  82 SE14      29.79F
FLORA*         LGT RAIN  44  43  95 SE12      29.74F
FAIRFIELD*     LGT RAIN  47  44  91 SE13      29.74F
HARRISBURG*    LGT RAIN  48  47  97 SE12      29.76F
ROBINSON*      CLOUDY    44  41  88 SE12      29.80F
CARMI*         DRIZZLE   49  46  87 SE13      29.76F
$$

ABBREVIATIONS USED IN REMARKS
   TC - TEMPERATURE IN CELSIUS
  WCI - WIND CHILL INDEX
   HX - HEAT INDEX
  VSB - VISIBILITY
$$



USA.gov is the U.S. government's official web portal to all federal, state and local government web resources and services.